[[{"header":{"parameterUnit":"m.s-1","parameterCategory":1,"la1":30.2991,"la2":30.254,"lo1":-89.0895,"lo2":-89.0444,"dy":0.0017,"dx":0.0017,"nx":28,"ny":28,"refTime":"2023-08-18T09:00:00:Z","depth":0,"parameterNumber":2,"parameterNumberName":"U-component_of_WINDS"},"data":[0,0,0,0,0,0,0,0,0,0,0,0,0,0,0,0,0,0,0,0,0,0,0,0,0,0,0,0,0,0,0,0,0,0,0,0,0,0,0,0,0,0,0,0,0,0,0,0,0,0,0,0,0,0,0,0,0,0,1.0628,1.0629,0,1.0755,1.0756,1.0757,1.0783,1.0782,1.0781,1.078,1.0912,1.0916,1.0921,0,0,0,0,0,0,0,0,0,0,0,0,0,1.0409,1.0413,1.0628,1.063,1.0631,1.0754,1.0756,1.0758,1.0783,1.0782,1.078,1.0779,1.0911,1.0916,1.0921,0,0,0,0,0,0,0,0,0,0,0,0,0,1.0517,1.0414,1.0628,1.0658,1.0662,1.0754,1.0756,1.0758,1.0783,1.0782,1.078,1.0779,1.0909,1.0915,1.0922,1.0993,0,0,1.0942,1.0945,0,0,0,0,0,0,0,0,1.0511,1.0525,1.0652,1.0656,1.0661,1.0751,1.0727,1.0837,1.0783,1.0737,1.078,1.0778,1.086,1.0871,1.0898,1.0999,1.1005,1.0943,1.0947,1.095,1.0952,0,0,0,0,0,0,0,1.0503,1.052,1.0678,1.0654,1.066,1.0666,1.068,1.0748,1.0806,1.0741,1.0743,1.0758,1.0862,1.0891,1.0901,1.1007,1.0943,1.0949,1.0953,1.0955,1.117,1.1172,0,0,0,0,0,0,1.049,1.0513,1.0674,1.0682,1.0581,1.0671,1.0687,1.0724,1.0805,1.0816,1.0759,1.0759,1.088,1.0893,1.0906,1.0992,1.095,1.0956,1.096,1.1168,1.117,1.1172,0,0,0,0,0,0,1.0485,1.0504,1.0669,1.0598,1.062,1.0677,1.0718,1.0727,1.0756,1.0818,1.0829,1.0778,1.088,1.0896,1.097,1.0997,1.0959,1.0965,1.1166,1.1169,1.1171,1.1166,0,0,0,0,0,0,1.0479,1.0502,1.053,1.0599,1.0623,1.0731,1.072,1.0731,1.0767,1.0768,1.0839,1.0849,1.088,1.096,1.0977,1.1006,1.097,1.1164,1.1168,1.1171,1.1164,1.1169,1.1172,0,0,0,0,0,1.0471,1.0524,1.0531,1.055,1.0659,1.0732,1.0747,1.078,1.0769,1.0797,1.0837,1.0847,1.0992,1.0967,1.0986,1.1018,1.1163,1.1167,1.117,1.1163,1.1168,1.1172,0,0,0,0,0,0,1.0459,1.0534,1.0542,1.0619,1.0669,1.0737,1.0773,1.0785,1.0839,1.0838,1.0878,1.0894,1.0965,1.0999,1.0971,1.1089,1.1077,1.1084,1.1064,1.107,1.1073,1.1063,1.0976,0,0,0,0,0,1.0464,1.0518,1.0581,1.0643,1.0667,1.0716,1.0749,1.077,1.0824,1.0846,1.0891,1.0943,1.1,1.1037,1.1093,1.117,1.1185,1.12,1.1204,1.1207,1.1213,1.1254,1.1261,1.1185,1.1185,1.1185,0,0,1.0478,1.0526,1.0557,1.0642,1.0683,1.0737,1.0733,1.0791,1.0832,1.0855,1.0926,1.0961,1.1022,1.1097,1.1132,1.1128,1.1237,1.1212,1.1214,1.1218,1.1259,1.1266,1.1272,1.1187,1.1187,1.1187,0,0,1.0529,1.0571,1.0626,1.0667,1.0729,1.076,1.0773,1.0839,1.0862,1.0935,1.0952,1.1002,1.11,1.1141,1.1176,1.1241,1.1252,1.1258,1.1278,1.1317,1.1323,1.1329,1.1351,1.1358,1.1264,1.1264,1.1264,0,1.0538,1.062,1.0654,1.071,1.0746,1.0768,1.0824,1.0862,1.0939,1.0964,1.0957,1.1079,1.1122,1.1206,1.1221,1.1249,1.1264,1.125,1.132,1.1326,1.1331,1.1352,1.1361,1.1264,1.1264,1.1264,1.1264,0,1.0627,1.0683,1.0721,1.0793,1.0833,1.0889,1.0931,1.0968,1.0986,1.1017,1.109,1.1142,1.1208,1.123,1.1248,1.1316,1.1311,1.1311,1.1299,1.1338,1.1359,1.1367,1.1265,1.1265,1.1265,1.1265,0,0,1.0675,1.0763,1.0776,1.0808,1.0877,1.0922,1.0978,1.1041,1.1071,1.1124,1.1172,1.1253,1.1253,1.1292,1.1315,1.135,1.1396,1.1347,1.1349,1.1353,1.1472,1.147,1.1479,1.1404,1.1406,1.1407,1.1467,0,1.0733,1.0834,1.0865,1.0949,1.1001,1.1021,1.107,1.1118,1.1149,1.1198,1.1233,1.1289,1.1286,1.1309,1.1345,1.1383,1.1421,1.1379,1.1449,1.1451,1.1431,1.149,1.1489,1.1543,1.1475,1.1477,1.1478,0,1.0815,1.0867,1.0955,1.1016,1.1039,1.1082,1.1142,1.1188,1.1242,1.1262,1.1304,1.1324,1.1383,1.1368,1.145,1.1421,1.1451,1.1474,1.1477,1.1484,1.1466,1.1498,1.1561,1.1568,1.1491,1.149,1.1489,0,1.0838,1.0931,1.0995,1.1022,1.1095,1.1125,1.1157,1.1209,1.1244,1.1297,1.132,1.1379,1.1411,1.1456,1.1491,1.1477,1.1569,1.1557,1.1587,1.1586,1.1605,1.1604,1.1673,1.1627,1.1626,1.1626,1.1626,0,1.09,1.0953,1.1006,1.1046,1.1106,1.1141,1.1199,1.1232,1.1279,1.1325,1.1347,1.139,1.1434,1.1483,1.1511,1.1574,1.1589,1.1606,1.1613,1.1604,1.1601,1.1623,1.162,1.1629,1.1628,1.1628,1.1627,0,1.0936,1.0974,1.1045,1.1108,1.1125,1.1166,1.1219,1.1258,1.129,1.1348,1.1364,1.1413,1.1472,1.1511,1.1587,1.1605,1.1673,1.1679,1.1654,1.1657,1.1684,1.168,1.1769,1.1782,1.1728,1.1729,1.1729,0,1.0972,1.1013,1.1079,1.1111,1.1143,1.1194,1.123,1.1266,1.1302,1.1366,1.1397,1.1456,1.1506,1.1598,1.1641,1.1698,1.1706,1.1733,1.1715,1.1703,1.1705,1.1701,1.1705,1.1736,1.1736,1.1736,1.1737,0,1.1031,1.1048,1.1098,1.1154,1.1196,1.1242,1.1289,1.1314,1.1358,1.1397,1.1457,1.1495,1.157,1.1629,1.169,1.1723,1.1737,1.1742,1.1752,1.1742,1.1725,1.1733,1.166,1.174,1.1739,1.1739,1.1739,1.1739,1.1068,1.1105,1.1156,1.1211,1.1249,1.1292,1.1331,1.1367,1.1416,1.148,1.1498,1.1559,1.1611,1.1694,1.1728,1.1777,1.1774,1.1789,1.1792,1.1795,1.1794,1.1718,1.1788,1.1788,1.1788,1.1788,1.1788,0,1.1127,1.1161,1.1211,1.1274,1.1317,1.1326,1.1377,1.1412,1.1465,1.1512,1.156,1.1627,1.1683,1.173,1.1788,1.1818,1.1826,1.1832,1.183,1.1837,1.1794,1.1779,1.1824,1.1824,1.1824,1.1824,1.1824,1.1824,1.1163,1.1225,1.1247,1.1328,1.1362,1.1421,1.1449,1.1488,1.1525,1.1599,1.1645,1.1675,1.1722,1.1783,1.1835,1.1847,1.1867,1.1872,1.1885,1.1844,1.184,1.1836,1.1822,1.1876,1.1876,1.1924,1.1925,1.1925]},{"header":{"parameterUnit":"m.s-1","parameterCategory":1,"la1":30.2991,"la2":30.254,"lo1":-89.0895,"lo2":-89.0444,"dy":0.0017,"dx":0.0017,"nx":28,"ny":28,"refTime":"2023-08-18T09:00:00:Z","depth":0,"parameterNumber":3,"parameterNumberName":"V-component_of_WINDS"},"data":[0,0,0,0,0,0,0,0,0,0,0,0,0,0,0,0,0,0,0,0,0,0,0,0,0,0,0,0,0,0,0,0,0,0,0,0,0,0,0,0,0,0,0,0,0,0,0,0,0,0,0,0,0,0,0,0,0,0,4.8772,4.8771,0,4.8684,4.8683,4.8682,4.8575,4.8573,4.8571,4.857,4.8476,4.8475,4.8474,0,0,0,0,0,0,0,0,0,0,0,0,0,4.8845,4.8845,4.8772,4.8771,4.877,4.8684,4.8683,4.8682,4.8575,4.8573,4.8571,4.8569,4.8476,4.8475,4.8474,0,0,0,0,0,0,0,0,0,0,0,0,0,4.8791,4.8844,4.8773,4.8707,4.87,4.8684,4.8683,4.8681,4.8575,4.8573,4.857,4.8568,4.8477,4.8475,4.8474,4.8515,0,0,4.8469,4.8469,0,0,0,0,0,0,0,0,4.8794,4.8788,4.8717,4.8711,4.8704,4.8638,4.8674,4.8625,4.8576,4.8623,4.857,4.8567,4.8532,4.8525,4.8514,4.8511,4.8506,4.8469,4.8468,4.8468,4.8467,0,0,0,0,0,0,0,4.8798,4.8792,4.8737,4.8717,4.8708,4.868,4.867,4.8664,4.8592,4.8618,4.861,4.8602,4.8527,4.8516,4.8511,4.8505,4.8469,4.8468,4.8467,4.8467,4.8529,4.8531,0,0,0,0,0,0,4.8812,4.8795,4.874,4.8735,4.8744,4.8681,4.8669,4.8661,4.8592,4.8579,4.8604,4.8597,4.852,4.8513,4.8508,4.855,4.8468,4.8466,4.8466,4.8526,4.853,4.8532,0,0,0,0,0,0,4.8814,4.8808,4.8744,4.8763,4.8753,4.8683,4.8674,4.8661,4.865,4.8581,4.8567,4.8606,4.8517,4.851,4.8514,4.8545,4.8466,4.8465,4.8524,4.8527,4.8531,4.8636,0,0,0,0,0,0,4.8817,4.881,4.8825,4.8764,4.8752,4.8753,4.8676,4.8661,4.8648,4.8638,4.8579,4.8567,4.8515,4.8517,4.8512,4.8542,4.8463,4.852,4.8525,4.853,4.863,4.8643,4.8655,0,0,0,0,0,4.882,4.8858,4.8827,4.8821,4.877,4.8755,4.8748,4.8688,4.8651,4.8665,4.8621,4.8569,4.8543,4.8518,4.8512,4.8542,4.8518,4.8524,4.8529,4.8624,4.8641,4.8655,0,0,0,0,0,0,4.8924,4.8849,4.8813,4.8833,4.8802,4.8737,4.8753,4.8708,4.8685,4.8677,4.8602,4.859,4.8603,4.8573,4.8546,4.8577,4.8523,4.8528,4.8597,4.8612,4.8624,4.8631,4.8462,0,0,0,0,0,4.8949,4.8944,4.8878,4.8902,4.8888,4.8824,4.8815,4.8772,4.8736,4.8721,4.8677,4.8643,4.8627,4.8618,4.8599,4.8625,4.861,4.8643,4.8655,4.8666,4.8671,4.8681,4.8694,4.8551,4.8551,4.8551,0,0,4.9001,4.896,4.8961,4.8922,4.8892,4.8888,4.8813,4.8811,4.8807,4.872,4.8722,4.8689,4.8645,4.8661,4.8665,4.8636,4.8707,4.8673,4.8682,4.8681,4.8688,4.8702,4.8714,4.8555,4.8554,4.8553,0,0,4.9094,4.9062,4.9078,4.905,4.9007,4.8964,4.8968,4.891,4.8885,4.8886,4.8821,4.8814,4.8788,4.8759,4.8741,4.8823,4.8774,4.8819,4.8885,4.8896,4.8907,4.8916,4.8944,4.8956,4.8824,4.8825,4.8825,0,4.9163,4.9155,4.9092,4.9094,4.9079,4.9002,4.9017,4.8992,4.8945,4.8935,4.8903,4.8869,4.8834,4.8841,4.8862,4.885,4.8851,4.8825,4.8911,4.8919,4.8927,4.8953,4.8964,4.883,4.883,4.8829,4.8829,0,4.9242,4.9237,4.9255,4.9212,4.9199,4.9208,4.9145,4.9139,4.9097,4.9057,4.9058,4.9014,4.8985,4.8983,4.8942,4.8984,4.8967,4.8925,4.8868,4.8948,4.8971,4.8981,4.8839,4.8837,4.8835,4.8834,0,0,4.9396,4.932,4.9327,4.9306,4.9253,4.9247,4.9252,4.9225,4.922,4.919,4.9191,4.9171,4.9131,4.9111,4.9066,4.9076,4.9142,4.903,4.9028,4.9052,4.9184,4.9216,4.9229,4.9109,4.9111,4.9112,4.9187,0,4.9478,4.9483,4.9427,4.9447,4.944,4.9368,4.9371,4.9338,4.9302,4.929,4.9248,4.9235,4.9183,4.917,4.9177,4.9133,4.9167,4.9126,4.9108,4.9108,4.912,4.9241,4.9275,4.9348,4.9196,4.9197,4.9198,0,4.9573,4.955,4.957,4.9515,4.951,4.9515,4.9485,4.9476,4.9436,4.9408,4.9387,4.9335,4.9334,4.9282,4.9279,4.9253,4.9241,4.9219,4.922,4.9215,4.9158,4.9238,4.937,4.9381,4.9212,4.9211,4.921,0,4.9683,4.9656,4.9664,4.9649,4.9586,4.959,4.9564,4.9522,4.951,4.9483,4.9474,4.9447,4.9433,4.9413,4.9355,4.9322,4.9358,4.9301,4.9334,4.9335,4.9344,4.9344,4.9475,4.9339,4.9339,4.9339,4.9338,0,4.9779,4.9794,4.9712,4.9717,4.9731,4.9666,4.9681,4.9647,4.9611,4.9607,4.9542,4.9539,4.9464,4.9452,4.9407,4.9411,4.9405,4.9381,4.9369,4.9386,4.9389,4.9377,4.9371,4.9341,4.9341,4.934,4.934,0,4.9903,4.9849,4.9853,4.9794,4.9779,4.9792,4.974,4.9741,4.97,4.9696,4.9691,4.9627,4.961,4.9551,4.9519,4.9488,4.9505,4.9482,4.9519,4.9511,4.9547,4.9544,4.9674,4.9687,4.9544,4.9546,4.9547,0,4.9967,4.9977,4.9919,4.9912,4.9889,4.9879,4.9866,4.9802,4.9791,4.9747,4.9754,4.9732,4.9711,4.9687,4.9636,4.9611,4.9586,4.9633,4.9581,4.9599,4.9585,4.9585,4.9585,4.9644,4.9646,4.9647,4.9649,0,5.0087,5.006,5.0044,5.002,5.0006,4.9983,4.9956,4.9954,4.9883,4.9873,4.9856,4.984,4.9808,4.9787,4.9753,4.9724,4.9674,4.9666,4.9671,4.9689,4.971,4.9698,4.9549,4.9663,4.9661,4.966,4.9659,4.9659,5.0182,5.0187,5.0147,5.0132,5.0105,5.0082,5.008,5.004,5.0025,4.9995,4.9958,4.9945,4.9904,4.9854,4.9829,4.9817,4.9789,4.9799,4.9801,4.9804,4.9812,4.9713,4.981,4.981,4.981,4.9809,4.9809,0,5.0297,5.0268,5.0255,5.022,5.0208,5.0164,5.0132,5.0124,5.0114,5.0081,5.0063,5.0042,5.0021,4.9969,4.9943,4.9943,4.9919,4.9938,4.9937,4.993,4.9838,4.9835,4.9957,4.9957,4.9957,4.9957,4.9957,4.9957,5.0356,5.0362,5.0331,5.0323,5.0293,5.0281,5.0266,5.0244,5.0217,5.0198,5.0181,5.0148,5.0107,5.0077,5.0055,5.004,5.0033,5.0059,5.0037,4.9951,4.9937,4.9924,4.992,5.0058,5.0058,5.013,5.013,5.0131]}]]